📊 Raw Sensor Data
Showing records 52376 to 52400 of 85,282 total
| ID | Distance (ft) | Battery V | Battery A | Int Temp (°F) | Int Humid (%) | Ext Temp (°F) | Solar V | RSSI | SNR | Time Stamp |
|---|---|---|---|---|---|---|---|---|---|---|
| 32919 | 14.0 | 4.05 | 0 | 60 | 36 | 57 | 5.10 | -74 | 8 | 02/20/2025 11:00 AM |
| 32918 | 14.0 | 4.07 | 0 | 59 | 36 | 57 | 5.10 | -75 | 8 | 02/20/2025 10:45 AM |
| 32917 | 13.9 | 3.78 | 0 | 57 | 36 | 56 | 5.10 | -76 | 8 | 02/20/2025 10:30 AM |
| 32916 | 14.0 | 3.78 | 0 | 56 | 36 | 55 | 5.10 | -75 | 8 | 02/20/2025 10:15 AM |
| 32915 | 14.0 | 3.79 | 0 | 55 | 36 | 54 | 5.10 | -75 | 8 | 02/20/2025 10:00 AM |
| 32914 | 14.0 | 3.99 | 0 | 54 | 36 | 53 | 5.10 | -74 | 8 | 02/20/2025 09:45 AM |
| 32913 | 14.0 | 3.79 | 0 | 53 | 36 | 53 | 5.10 | -79 | 8 | 02/20/2025 09:30 AM |
| 32912 | 14.1 | 3.86 | 0 | 53 | 36 | 53 | 5.10 | -75 | 8 | 02/20/2025 09:15 AM |
| 32911 | 13.9 | 3.79 | 0 | 52 | 36 | 53 | 5.10 | -77 | 8 | 02/20/2025 09:00 AM |
| 32910 | 13.9 | 3.79 | -5 | 51 | 37 | 52 | 5.00 | -73 | 8 | 02/20/2025 08:45 AM |
| 32909 | 13.9 | 3.79 | 0 | 50 | 37 | 51 | 5.10 | -75 | 8 | 02/20/2025 08:30 AM |
| 32908 | 13.9 | 3.90 | 5 | 49 | 36 | 51 | 5.10 | -75 | 9 | 02/20/2025 08:15 AM |
| 32907 | 13.8 | 3.98 | 69 | 48 | 37 | 50 | 4.50 | -75 | 8 | 02/20/2025 08:00 AM |
| 32906 | 13.9 | 3.89 | 22 | 47 | 37 | 49 | 4.50 | -76 | 8 | 02/20/2025 07:45 AM |
| 32905 | 13.8 | 3.89 | 27 | 47 | 37 | 48 | 4.50 | -74 | 8 | 02/20/2025 07:30 AM |
| 32904 | 13.8 | 3.85 | 14 | 46 | 38 | 48 | 4.50 | -75 | 8 | 02/20/2025 07:15 AM |
| 32903 | 13.8 | 3.84 | 0 | 46 | 38 | 48 | 4.50 | -75 | 8 | 02/20/2025 07:00 AM |
| 32902 | 13.8 | 3.79 | -10 | 46 | 38 | 48 | 1.80 | -77 | 8 | 02/20/2025 06:45 AM |
| 32901 | 13.8 | 3.79 | -5 | 46 | 38 | 48 | 0.50 | -77 | 8 | 02/20/2025 06:30 AM |
| 32900 | 13.8 | 3.79 | -5 | 47 | 38 | 48 | 0.00 | -86 | 7 | 02/20/2025 06:15 AM |
| 32899 | 13.8 | 3.79 | -5 | 47 | 38 | 48 | 0.10 | -90 | 7 | 02/20/2025 06:00 AM |
| 32898 | 13.8 | 3.79 | -5 | 47 | 38 | 48 | 0.00 | -82 | 7 | 02/20/2025 05:45 AM |
| 32897 | 13.7 | 3.84 | -5 | 48 | 38 | 49 | 0.00 | -80 | 7 | 02/20/2025 05:30 AM |
| 32896 | 13.7 | 3.79 | -5 | 48 | 38 | 49 | 0.10 | -82 | 8 | 02/20/2025 05:15 AM |
| 32895 | 13.8 | 3.84 | -5 | 48 | 38 | 49 | 0.00 | -80 | 7 | 02/20/2025 05:00 AM |